Regional Weather Roundup
Issued by NWS Lake Charles, LA

Home | Current Version | Previous Version | Text Only | Print | Product List | Glossary On
Versions: 1 2 3 4 5 6 7 8 9 10 11 12 13 14 15 16 17 18 19 20 21 22 23 24 25 26 27 28 29 30 31 32 33 34 35 36 37 38 39 40 41 42 43 44 45 46 47 48 49 50
991
ASUS44 KLCH 170410
RWRLCH
REGIONAL WEATHER ROUNDUP
NATIONAL WEATHER SERVICE LAKE CHARLES LA
1000 PM CST MON JAN 16 2017

Note: "fair" indicates few or no clouds below 12,000 feet with no
significant weather and/or obstructions to visibility.


ACROSS SOUTHEAST TEXAS

CITY           SKY/WX    TMP DP  RH WIND       PRES   REMARKS
BEAUMONT       CLOUDY    71  68  90 S15       30.03S
BEAUMONT CITY  CLOUDY    70  68  92 SE6       30.05S
ORANGE         RAIN     N/A N/A N/A S7        30.06S
JASPER         CLOUDY    72  69  90 S7        30.06S
$$

ACROSS CENTRAL LOUISIANA

CITY           SKY/WX    TMP DP  RH WIND       PRES   REMARKS
LEESVILLE      CLOUDY    68  68 100 S9        30.05R
FULLERTON      CLOUDY    69  67  93 CALM      30.03S
ALEXANDRIA INT CLOUDY    67  66  97 SE10      30.05R
ESLER FIELD    CLOUDY    68  67  96 S3        30.07R
DERIDDER       CLOUDY    70  68  95 SE6       30.07S
OAKDALE        CLOUDY    70  68  93 CALM      30.07R
OPELOUSAS      CLOUDY    68  66  94 S5        30.08S
$$

ACROSS SOUTHWEST AND SOUTH CENTRAL LOUISIANA

CITY           SKY/WX    TMP DP  RH WIND       PRES   REMARKS
SULPHUR        CLOUDY    70  70  99 SE14      30.06S FOG
LAKE CHARLES   CLOUDY    71  69  93 S13       30.05F
CHENNAULT INT  CLOUDY    70  70 100 S12       30.06F
CAMERON PHI    NOT AVBL
DEQUINCY       CLOUDY    70  68  93 S7        30.06R
JENNINGS       NOT AVBL
LAFAYETTE      CLOUDY    73  69  87 S9        30.08S
NEW IBERIA     LGT RAIN  71  67  87 S13       30.10S
ABBEVILLE      NOT AVBL
PATTERSON      CLOUDY    69  67  93 SE8       30.11S
SALT POINT     NOT AVBL
$$

SELECTED SITES ACROSS THE REGION

CITY           SKY/WX    TMP DP  RH WIND       PRES   REMARKS
HOUSTON BUSH   CLOUDY    72  68  87 S7        30.01S
HOUSTON HOBBY  MOCLDY    71  69  93 SE7       30.01S
GALVESTON      MOCLDY    70  68  93 SE14      30.02S
COLLEGE STAT   CLOUDY    60  58  92 NE9       30.02S
CONROE         CLOUDY    70  66  87 SE5       30.02S
HUNTSVILLE     CLOUDY    61  59  93 NE5       30.03S
LUFKIN         CLOUDY    66  64  93 NW5       30.03R
SHREVEPORT     LGT RAIN  59  56  89 NW7       30.04S
MONROE         CLOUDY    69  63  81 S8        30.04S
NATCHEZ MS     PTCLDY    68  63  83 S9        30.09R
BATON ROUGE    CLOUDY    70  67  90 SE8       30.10S
N.O. INTL ARPT MOCLDY    69  66  90 SE10      30.12F
SLIDELL        MOCLDY    67  66  97 SE10      30.12F
$$

MARINE REPORTS

STATION/POSITION TIME  SKY/WX   TEMP    WIND        PRES    VSBY
                                AIR SEA DIR/SP/G
                 (UTC)          (F)     (DEG/KT/KT) (MB)    (MI)
BUOY 30 S HIGH I 0350            68 63  150/ 10/ 12 1016.7F
WVE H/P(F/S)=  4/ 7

SEA RIM ST PARK  0300            66     160/  8/ 11 1017.8R
PORT ARTHUR      0342               63  160/  4/  8 1017.6R
SABINE PASS N    0342            65 64  140/ 12/ 15 1018.5S
TEXAS POINT      NOT AVBL
CALCASIEU PASS   0342            64 62  150/ 10/ 12   N/A
LK CHARLES BEACH 0348            71                 1018.2F
MARSH ISLAND     0300            65                   N/A
FRESH WATER LOCK 0348            65 67  140/  7/ 11 1019.4R
AMERADA PASS     0348            67 55  140/  5/  9 1019.2F
$$




USA.gov is the U.S. government's official web portal to all federal, state and local government web resources and services.